{"data":{"norad_id":44059,"epoch":"2026-05-24T23:20:48.412320Z","epoch_age_seconds":87656,"freshness":"FRESH","line1":"1 44059U 19010C   26144.97278255 -.00000071  00000+0 -21928-3 0  9999","line2":"2 44059  87.9104 233.3856 0002155 106.9879 253.1488 13.16594397348673","mean_motion":13.16594397,"eccentricity":0.0002155,"inclination_deg":87.9104,"raan_deg":233.3856,"arg_perigee_deg":106.9879,"mean_anomaly_deg":253.1488,"bstar":-0.00021928,"rev_number":34867,"period_min":109.37309191663,"perigee_km":1196.1235250695,"apogee_km":1199.3887350085,"semimajor_km":7575.893130039,"source":"CELESTRAK","updated_at":"2026-05-25T13:38:22.331030Z"}}